This is the latest recevied weather packets stored in our database for station/object IK2ILW-6. If no packets are shown the sender has not sent any weather packets the latest 1 day(s).
| Time | Temp. | Humidity | Pressure | Rain* | Wind** | Luminosity | Snow |
|---|---|---|---|---|---|---|---|
| 1778058685 | 2.22° C | 96% | 1009 hPa | 14.99 mm | - | 49 W/m² | - |
| 1778058390 | 2.22° C | 96% | 1008.8 hPa | 11.94 mm | - | 83 W/m² | - |
| 1778058092 | 1.67° C | 96% | 1008.8 hPa | 9.91 mm | - | 74 W/m² | - |
| 1778057796 | 1.67° C | 96% | 1009 hPa | 5.08 mm | - | 74 W/m² | - |
| 1778057185 | 2.78° C | 96% | 1009 hPa | 0 mm | - | 90 W/m² | - |
| 1778056594 | 2.78° C | 96% | 1008.8 hPa | 0 mm | - | 163 W/m² | - |
| 1778055692 | 3.33° C | 96% | 1008.6 hPa | 0 mm | - | 311 W/m² | - |
| 1778055396 | 3.33° C | 96% | 1008.6 hPa | 0 mm | - | 357 W/m² | - |
| 1778055101 | 3.33° C | 96% | 1008.9 hPa | 0 mm | - | 279 W/m² | - |
| 1778054491 | 3.33° C | 96% | 1008.5 hPa | 0 mm | - | 223 W/m² | - |
| 1778054195 | 2.78° C | 96% | 1008.7 hPa | 1.02 mm | - | 292 W/m² | - |
| 1778053898 | 2.78° C | 96% | 1008.7 hPa | 1.02 mm | - | 188 W/m² | - |
| 1778053602 | 2.78° C | 96% | 1009 hPa | 1.02 mm | - | 174 W/m² | - |
| 1778053285 | 3.33° C | 97% | 1008.9 hPa | 1.02 mm | - | 230 W/m² | - |
| 1778052697 | 3.33° C | 97% | 1009 hPa | 1.02 mm | - | 299 W/m² | - |
| 1778051791 | 2.78° C | 96% | 1009 hPa | 1.02 mm | - | 193 W/m² | - |
| 1778050885 | 2.78° C | 97% | 1009 hPa | 2.03 mm | - | 148 W/m² | - |
| 1778050588 | 2.78° C | 96% | 1009.2 hPa | 1.02 mm | - | 236 W/m² | - |
| 1778049387 | 2.78° C | 96% | 1009.6 hPa | 4.06 mm | - | 81 W/m² | - |
| 1778048792 | 2.78° C | 96% | 1009.5 hPa | 7.11 mm | - | 21 W/m² | - |
| 1778046995 | 1.11° C | 97% | 1009.9 hPa | 9.91 mm | - | 26 W/m² | - |
| 1778046092 | 1.67° C | 97% | 1009.9 hPa | 8.89 mm | - | 14 W/m² | - |
| 1778045500 | 2.22° C | 97% | 1010 hPa | 6.1 mm | - | 9 W/m² | - |
| 1778045184 | 2.22° C | 97% | 1009.9 hPa | 5.08 mm | - | 5 W/m² | - |
| 1778044888 | 1.67° C | 97% | 1009.8 hPa | 5.08 mm | - | 12 W/m² | - |
* Rain latest hour (hover to see other rain measurements)
** Current wind speed in m/s (hover to see current wind gust speed)